Regional Weather Roundup
Issued by NWS

Home | Current Version | Previous Version | Text Only | Print | Product List | Glossary Off
Versions: 1 2 3 4 5 6 7 8 9 10 11 12 13 14 15 16 17 18 19 20 21 22 23 24 25 26 27 28 29 30 31 32 33 34 35 36 37 38 39 40 41 42 43 44 45 46 47 48 49 50

000
ASUS45 KCYS 220810
RWRWY

WYOMING REGIONAL WEATHER ROUNDUP
NATIONAL WEATHER SERVICE CHEYENNE WY
200 AM MDT FRI AUG 22 2014

NOTE:  "FAIR" INDICATES FEW OR NO CLOUDS BELOW 12,000 FEET
WITH NO SIGNIFICANT WEATHER AND/OR OBSTRUCTIONS TO VISIBILITY.

WYZ001-220900-
YELLOWSTONE NATIONAL PARK

CITY           SKY/WX    TMP DP  RH WIND       PRES   REMARKS
LK YELLOWSTONE   N/A     43  42  97 CALM      30.27F
W YELLOWSTONE  NOT AVBL

$$
WYZ002>013-054>058-071-098>099-220900-
NORTHERN WYOMING

CITY           SKY/WX    TMP DP  RH WIND       PRES   REMARKS
JACKSON        CLOUDY    48  48 100 CALM      30.21S
CODY           CLOUDY    54  50  87 S5        30.14S
GREYBULL       PTCLDY    58  49  72 NW8       30.07S
WORLAND        PTCLDY    54  46  74 S3        30.09S
SHERIDAN       CLOUDY    59  54  83 W6        30.11F
BUFFALO        CLOUDY    56  54  93 N7        30.16S
GILLETTE       CLOUDY    58  54  86 N8        30.11S
HULETT         CLOUDY    61  57  88 MISG      30.11
NEWCASTLE      FAIR      57  54  88 CALM      30.06

$$
WYZ014>020-022>026-101>103-220900-
CENTRAL WYOMING

CITY           SKY/WX    TMP DP  RH WIND       PRES   REMARKS
BIG PINEY      LGT RAIN  50  48  93 NE8       30.23F
PINEDALE       CLOUDY    48  48 100 N6        30.25R
DUBOIS         CLOUDY    45  43  93 NW9       30.22F
LANDER         PTCLDY    56  41  57 SW6       30.10F
RIVERTON       PTCLDY    57  46  66 E7        30.11S
CASPER         CLEAR     51  49  92 CALM      30.15S
DOUGLAS        PTCLDY    57  52  83 NW7       30.15R

$$
WYZ021-027>030-104>119-220900-
SOUTHERN WYOMING

CITY           SKY/WX    TMP DP  RH WIND       PRES   REMARKS
EVANSTON       MOCLDY    52  44  74 N10       30.22R
KEMMERER       CLOUDY    52  45  76 N9        30.23R
FORT BRIDGER   FAIR      52  44  75 W8        30.22S
ROCK SPRINGS   CLOUDY    55  42  61 S5        30.19F
DIXON          FAIR      53  46  77 E9        30.24F
RAWLINS        PTCLDY    48  43  82 CALM      30.22F
SARATOGA       FAIR      46  45  93 MISG      30.25F
LARAMIE        CLOUDY    54  44  69 S6        30.25F
CHEYENNE       LGT RAIN  59  47  64 VRB3      30.18F
TORRINGTON     MOCLDY    62  52  69 CALM      30.05S
PINE BLUFFS    PTSUNNY   61  50  67 W5        30.14S

$$



USA.gov is the U.S. government's official web portal to all federal, state and local government web resources and services.